Theta_e
308 308 308 307 309 311 312 313 313 313 313 313 312 313 316 314 315 319 319 316 317 316 317 319 320 322 322 323 321 321 326 327 326 329 329 328 329 337 334 337 333 331 332 338 351
308 307 307 309 310 312 312 313 313 313 313 312 313 314 317 316 321 319 315 316 317 318 321 322 323 322 323 323 322 324 326 326 326 326 327 326 327 333 332 332 334 330 334 340 350
308 307 308 310 311 312 313 313 313 313 313 313 313 315 317 316 321 319 317 318 317 319 320 321 321 323 322 323 323 324 325 324 323 324 324 324 323 325 327 330 327 325 327 338 347
308 308 309 311 312 313 313 313 313 313 313 313 314 317 317 319 321 319 318 318 318 319 320 322 323 323 322 322 323 323 323 323 322 321 322 322 322 322 323 324 323 325 334 332 337
308 309 310 311 312 313 313 314 313 313 313 313 314 318 319 320 320 319 319 318 319 320 321 323 323 323 322 322 322 322 322 322 321 321 321 322 321 322 325 323 325 333 336 336 335
308 309 311 312 312 313 313 313 313 313 312 313 314 318 319 319 320 320 320 319 320 321 321 322 323 323 323 323 323 322 322 322 322 321 321 323 323 323 325 324 325 326 328 330 335
309 310 311 311 312 313 313 313 313 312 312 313 313 319 321 319 320 320 320 320 320 321 322 321 322 323 324 323 323 323 323 323 323 321 321 322 324 325 325 326 326 326 327 327 327
309 310 310 311 312 312 312 312 312 312 312 313 313 321 321 320 320 321 321 321 321 321 321 321 322 324 324 323 323 323 323 324 323 322 321 321 326 325 325 327 328 328 328 328 329
309 310 311 311 312 311 312 312 313 313 314 313 317 320 321 320 321 320 321 322 321 321 320 320 323 324 324 324 324 324 325 325 324 322 323 323 326 325 325 327 328 329 329 330 330
308 309 310 310 311 312 315 318 319 317 318 316 315 323 322 322 321 319 320 321 323 323 324 324 325 324 324 324 324 324 323 323 324 323 323 324 326 325 325 326 327 328 329 330 331
307 308 309 310 312 317 319 321 323 325 322 319 322 323 322 322 320 321 321 322 323 324 325 325 325 326 324 324 323 323 323 324 323 322 323 325 326 326 325 325 326 327 328 329 330
306 308 310 312 317 319 321 323 322 322 325 321 321 322 321 322 321 322 323 324 323 323 324 324 325 324 322 322 322 323 323 324 323 321 322 325 326 325 325 324 325 326 326 327 327
309 310 312 317 319 322 322 322 320 320 325 321 322 323 323 322 322 323 323 324 324 323 323 324 323 322 322 323 323 323 324 324 323 323 322 324 326 325 324 324 323 323 323 324 324
311 314 319 320 321 322 323 321 319 320 326 325 323 324 321 321 322 322 322 324 324 325 324 323 321 323 323 323 322 323 321 321 322 323 323 323 322 326 325 324 324 323 323 322 322
312 317 318 320 323 323 322 322 320 324 331 326 323 322 321 322 323 323 323 324 325 325 325 323 322 323 323 321 320 321 319 319 319 320 321 320 322 326 324 324 324 323 323 322 322
315 316 318 320 322 320 321 321 324 332 331 323 321 321 322 321 323 323 324 324 324 324 324 323 321 321 321 320 318 318 319 319 319 319 321 321 319 318 323 324 324 323 322 321 320
315 314 316 317 322 319 322 323 329 332 326 324 323 321 322 323 323 324 325 326 327 327 327 324 324 321 319 320 319 317 318 319 319 320 318 320 318 319 323 323 322 322 321 320 319
314 313 315 320 324 322 325 327 332 327 326 324 324 323 324 325 325 325 325 326 325 326 326 327 327 322 318 317 317 318 318 319 318 318 316 317 319 325 322 321 320 320 320 319 319
316 320 325 322 323 324 328 329 330 327 325 325 324 325 326 325 325 326 326 326 324 325 328 327 326 319 317 318 317 319 320 319 322 321 321 319 320 322 320 320 320 319 319 319 318
327 327 324 319 320 326 326 327 327 324 323 324 328 326 327 325 325 326 326 324 323 321 324 326 327 319 318 317 319 320 318 322 320 325 317 315 315 316 322 321 320 319 318 318 317
328 328 323 318 322 328 325 327 324 322 323 326 326 327 325 325 324 325 326 324 322 320 322 322 324 321 317 318 318 320 319 319 319 319 320 318 316 319 318 318 319 318 317 317 316
325 329 321 319 327 330 326 326 317 322 322 323 324 324 324 323 323 324 325 325 320 320 322 322 322 320 318 317 317 318 319 319 322 322 320 320 321 319 318 318 318 318 317 316 314
325 326 323 322 326 327 325 322 322 322 322 323 323 323 322 323 324 323 323 321 321 320 322 322 323 325 319 321 320 320 320 320 321 323 325 327 323 319 319 319 317 317 315 315 314
324 326 325 324 323 327 327 325 323 319 320 321 322 322 323 322 322 323 322 320 321 322 317 318 323 322 319 317 318 319 319 319 321 328 325 322 320 318 317 317 317 315 315 314 313
321 326 322 326 325 325 325 324 324 322 320 320 321 322 322 323 322 322 322 321 320 320 320 323 322 319 317 317 318 318 318 318 321 321 325 321 318 317 317 316 315 314 313 312 311
321 321 320 323 323 325 320 325 323 322 322 322 322 321 321 322 321 321 321 321 320 320 321 322 320 320 321 319 319 320 319 320 320 319 318 317 317 315 315 314 313 312 311 310 310
311 313 319 317 323 323 324 324 322 322 319 320 321 320 320 319 317 318 319 319 319 319 321 321 318 322 323 322 321 323 321 318 317 317 318 319 317 315 314 313 312 312 311 310 309
Wind_Speed
1 2 4 7 7 6 5 5 4 4 5 6 9 12 8 4 7 3 11 5 4 6 5 4 5 5 6 3 0 2 7 7 5 6 10 7 4 1 3 3 2 2 6 5 11
2 3 7 8 7 6 5 4 3 4 5 7 10 12 5 6 6 15 9 9 6 3 2 6 6 8 4 3 2 6 4 5 4 6 10 7 1 5 4 3 6 3 3 4 12
3 6 8 8 7 5 4 3 3 4 6 8 11 10 3 3 9 11 11 8 9 4 2 1 3 4 6 2 2 1 9 7 7 5 2 4 5 1 4 4 15 13 5 4 9
5 8 8 7 6 5 3 2 3 5 7 9 12 8 2 4 2 5 10 6 7 5 1 6 6 6 5 6 5 11 7 3 6 4 2 2 5 11 12 11 11 5 8 0 5
6 8 7 6 5 3 2 2 4 5 7 10 12 5 2 5 9 5 9 6 4 4 5 3 6 5 7 7 6 9 6 4 3 6 7 9 8 7 16 16 8 6 3 4 7
6 7 6 5 3 1 1 2 4 5 7 9 11 3 4 8 3 5 6 2 4 3 4 2 3 5 6 5 2 4 4 3 2 7 3 9 10 3 15 14 9 8 8 8 9
5 5 4 3 1 1 2 3 5 6 6 7 9 3 2 7 2 4 3 4 4 2 2 4 3 6 8 10 6 10 9 8 7 4 5 5 9 10 12 10 9 9 9 10 11
5 4 4 2 2 3 4 5 6 6 5 6 5 2 6 2 1 3 5 6 6 2 6 4 4 7 1 10 7 8 6 8 9 5 4 8 7 9 9 8 9 9 9 10 11
4 4 3 2 3 4 6 7 6 4 4 4 2 6 9 4 3 5 5 7 5 8 8 5 3 3 6 12 10 8 4 3 8 5 3 6 8 7 6 6 7 8 9 10 12
3 3 2 2 4 6 8 2 1 0 2 3 3 4 5 5 2 3 2 5 4 8 8 3 3 7 7 8 5 5 6 3 2 4 2 5 7 6 5 6 7 8 10 11 13
2 3 1 1 4 6 2 2 5 5 3 4 5 3 5 1 1 3 3 3 4 5 5 2 2 5 5 5 5 1 4 4 2 3 2 2 4 5 4 5 7 8 10 12 13
3 3 2 0 4 5 4 3 5 4 3 1 1 2 1 1 4 6 3 4 3 5 6 6 8 4 4 2 1 4 5 2 3 1 7 7 5 4 4 6 7 7 10 11 11
3 3 2 1 3 6 10 6 4 3 3 4 1 1 3 4 3 7 3 3 10 11 7 10 8 2 4 3 2 1 6 3 8 2 6 6 11 10 7 6 6 7 8 9 11
2 3 2 2 4 1 3 8 3 5 5 6 6 4 5 2 4 4 4 3 3 7 8 8 4 2 3 5 9 9 3 7 9 9 9 3 9 12 10 8 5 4 5 7 9
1 3 3 2 2 1 4 7 1 3 4 5 6 2 4 3 6 4 5 1 5 6 7 6 3 3 4 5 7 6 7 7 9 11 11 13 7 10 10 9 7 3 3 4 6
2 6 2 2 2 2 7 2 3 6 4 6 5 7 9 4 3 3 2 5 2 3 6 8 3 4 5 1 3 5 8 7 6 6 9 4 5 4 6 9 7 4 0 4 7
2 7 4 2 3 6 5 5 5 5 4 7 6 6 6 3 4 2 2 3 4 5 8 5 3 4 6 9 5 8 8 4 4 5 5 3 7 3 5 3 2 2 2 2 5
4 6 3 2 4 4 4 5 5 2 3 4 3 6 4 1 2 1 3 6 2 5 5 6 7 3 4 6 7 5 6 4 5 6 11 7 5 5 4 3 2 1 4 6 8
3 3 2 4 1 3 5 6 2 3 3 4 7 7 5 4 3 3 2 1 2 4 5 3 3 5 6 5 5 3 1 4 5 8 8 1 4 10 7 5 3 3 7 9 11
0 3 3 5 2 5 5 3 2 1 0 2 4 2 4 2 4 4 4 2 3 3 4 3 4 1 3 3 5 6 3 4 2 4 9 6 8 6 6 8 4 8 9 11 13
1 4 3 2 2 5 4 3 5 4 1 3 1 2 1 1 3 3 2 5 0 2 2 1 2 6 4 3 3 6 4 1 4 4 5 8 5 6 8 8 8 13 15 15 16
3 4 4 0 4 1 3 3 0 6 3 3 2 2 1 1 2 3 3 2 1 1 1 3 2 4 3 3 1 3 3 3 3 3 7 10 14 6 4 9 9 13 14 16 16
5 3 2 2 4 4 4 5 1 4 2 2 2 1 1 2 3 4 2 3 1 2 3 4 2 3 5 6 7 7 5 7 5 5 10 9 8 6 6 10 6 13 14 18 20
4 3 3 1 1 3 5 6 6 3 3 3 4 3 4 4 3 3 5 3 1 1 2 1 4 8 6 7 4 5 8 8 9 7 12 14 20 17 17 17 17 17 18 20 21
3 3 2 1 3 0 3 2 7 5 2 4 4 5 5 4 4 5 4 5 4 6 2 3 6 6 9 9 9 11 13 12 13 14 14 18 18 18 15 17 19 17 20 22 23
4 3 2 1 2 4 3 6 8 5 6 6 6 6 5 4 4 2 4 5 6 5 5 4 5 5 10 10 11 14 14 13 12 13 15 15 17 13 17 16 19 19 21 23 22
3 0 4 3 3 5 3 4 4 4 3 2 4 6 5 0 1 3 2 1 3 4 8 4 4 5 6 1 9 12 9 8 7 9 11 13 16 16 16 18 19 21 22 21 25
Wind_Direction
51 106 128 133 130 122 110 103 87 61 35 16 2 354 3 86 111 133 58 7 323 301 291 253 219 198 202 135 38 264 235 203 154 183 116 143 171 169 64 153 122 45 7 61 144
116 133 139 139 134 127 118 105 80 42 17 6 360 1 37 122 121 66 9 360 1 345 237 205 162 192 146 134 142 248 218 67 45 70 132 131 294 148 220 163 203 224 125 136 157
139 143 143 140 133 124 115 96 53 20 7 3 1 8 51 197 99 49 13 26 25 50 21 167 160 210 127 161 50 314 97 122 103 71 3 120 139 129 268 191 10 337 93 158 187
148 151 147 142 134 126 111 73 24 4 2 4 3 13 50 233 82 40 11 28 22 23 263 161 196 159 150 117 107 114 96 88 81 55 221 139 103 76 47 9 334 318 3 323 209
156 156 152 148 142 134 108 36 7 357 357 360 6 24 248 129 92 25 21 31 13 5 31 57 125 151 131 130 138 116 115 96 103 90 60 96 61 98 30 2 15 17 355 332 311
161 163 161 157 154 139 32 357 346 344 350 356 7 63 205 119 39 356 352 354 23 9 53 43 80 86 121 121 336 145 134 123 92 86 94 96 60 355 9 354 10 6 355 337 320
164 172 176 182 198 263 316 324 324 328 337 345 358 27 221 88 350 346 9 16 351 334 107 74 99 234 150 121 138 154 151 129 83 134 131 151 75 35 4 2 10 1 347 335 335
166 179 194 219 275 304 313 315 312 312 318 328 347 296 87 89 27 55 33 89 67 76 105 107 126 117 300 118 161 200 240 194 81 154 142 225 107 44 9 12 27 21 12 359 0
175 186 206 251 296 313 312 305 297 296 309 327 317 284 111 124 111 18 19 27 102 102 99 103 136 101 167 195 177 194 175 168 122 58 161 251 116 49 27 36 41 38 33 29 24
175 195 219 282 314 319 312 298 217 168 301 294 271 207 156 87 357 346 24 25 150 140 130 184 166 157 169 220 224 150 178 196 242 80 107 106 110 86 57 57 53 50 47 44 41
136 180 206 311 328 339 107 188 198 179 205 3 62 55 112 56 250 92 21 68 171 212 149 90 198 55 36 18 30 280 262 265 92 90 216 88 125 94 78 76 69 55 50 47 47
92 135 139 81 22 54 74 51 37 17 160 121 293 262 251 302 155 95 43 65 120 136 151 155 65 78 74 100 212 262 269 228 201 107 280 179 157 133 111 84 66 57 55 48 45
79 110 107 47 122 63 69 46 309 242 254 130 100 199 125 212 104 69 9 90 65 84 76 67 81 131 102 89 290 321 304 288 298 257 253 233 201 181 151 129 101 75 60 50 43
88 124 60 127 153 99 76 351 329 195 213 132 167 130 177 168 118 11 13 338 118 96 85 81 92 60 71 63 336 284 19 293 280 274 289 236 289 192 166 162 148 107 55 36 24
198 160 83 80 52 1 351 334 170 240 199 140 128 96 166 240 117 115 35 294 52 112 253 97 126 0 30 18 336 12 319 296 288 272 289 231 256 106 174 193 170 159 55 34 17
204 181 137 74 93 31 335 278 222 231 148 145 147 174 174 173 122 123 172 72 66 99 71 123 106 33 20 4 332 308 261 251 262 258 241 107 263 235 183 237 168 188 314 359 353
100 175 161 86 20 324 318 213 213 263 148 151 158 190 182 149 150 265 237 193 270 234 179 175 117 110 357 303 192 326 310 306 234 207 280 102 265 308 100 147 282 254 290 329 329
90 142 151 85 332 330 245 223 240 98 146 118 164 168 195 245 148 178 223 217 108 252 279 276 182 5 9 15 334 354 333 312 303 319 315 236 262 76 93 139 175 265 313 299 323
111 128 145 350 347 313 249 230 76 128 90 159 165 202 153 141 293 220 279 330 39 353 279 278 150 113 55 30 323 59 347 9 300 265 264 340 208 191 170 186 216 302 319 319 324
178 212 103 339 323 267 239 36 123 52 33 221 232 296 214 127 248 227 193 82 116 18 326 77 271 179 98 237 72 336 96 227 187 297 310 324 312 310 190 246 240 278 311 316 312
261 230 40 339 272 229 246 94 128 84 6 342 128 150 81 290 285 234 65 110 81 96 45 74 256 135 205 206 320 169 192 312 302 288 293 309 2 51 316 329 309 317 322 315 319
308 234 14 162 229 272 190 134 5 130 125 106 88 85 272 178 245 231 227 33 46 205 277 61 295 255 343 104 230 281 279 293 280 261 261 282 292 49 354 316 307 298 308 313 305
332 320 21 290 254 183 140 140 103 171 97 143 121 341 177 197 236 231 177 100 115 211 180 158 211 284 190 171 191 241 224 255 283 284 279 283 281 186 245 251 268 293 318 315 308
292 249 145 108 52 299 187 181 158 96 109 96 120 156 175 197 204 205 187 145 92 94 34 187 248 249 271 340 320 244 248 255 263 277 275 282 305 308 320 321 328 325 312 307 315
349 72 10 359 114 338 250 196 193 176 163 185 171 220 199 215 218 221 200 169 167 151 163 246 262 253 266 278 266 274 278 277 265 268 278 293 302 311 335 327 315 314 320 318 318
336 324 181 158 287 247 169 206 223 167 191 194 238 170 192 248 252 274 215 224 252 180 211 200 267 275 271 259 269 270 270 269 269 277 282 291 293 330 333 311 322 322 320 315 319
33 29 287 129 193 240 217 227 244 201 187 285 210 182 208 210 307 32 34 21 299 232 205 217 258 258 280 257 284 270 258 249 271 281 288 290 303 319 320 320 318 323 312 326 327